Skip Page Navigation
NASA JPL Caltech
NASA Logo - Jet Propulsion Laboratory + View the NASA Portal
+ Center for Near-Earth Object Studies
JPL Home Earth Solar System Stars & Galaxies Technology
JPL Solar System Dynamics
BODIES ORBITS EPHEMERIDES TOOLS PHYSICAL DATA DISCOVERY FAQ SITE MAP
IMPORTANT: The SSD Announcement email list is now available. Major changes are coming in the near future, including possible hostname and/or URL changes. To be notified of such changes, subscribe to this email list.

Please visit this page for more details.


JPL Small-Body Database Browser
Search: [ help ]  
392901 (2012 VP51)
Classification: Main-belt Asteroid          SPK-ID: 2392901
Ephemeris | Orbit Diagram | Orbital Elements | Mission Design | Physical Parameters | Discovery Circumstances | Close-Approach Data ]

[ show orbit diagram ]
Orbital Elements at Epoch 2459000.5 (2020-May-31.0) TDB
Reference: JPL 10 (heliocentric ecliptic J2000)
 Element Value Uncertainty (1-sigma)   Units 
e .02169511167825191 8.2351e-08  
a 2.65899570894581 3.9844e-08 au
q 2.601308500088238 2.1519e-07 au
i 3.061441383266758 1.0509e-05 deg
node 124.5279950893743 0.00015617 deg
peri 68.21304653561288 0.00030196 deg
M 144.151885866564 0.00025158 deg
tp 2458366.348959704220
(2018-Sep-04.84895970)
0.001112 TDB
period 1583.707165078675
4.34
3.5597e-05
9.746e-08
d
yr
n .2273147510714937 5.1094e-09 deg/d
Q 2.716682917803382 4.0709e-08 au
  Orbit Determination Parameters
   # obs. used (total)      88  
   data-arc span      6672 days (18.27 yr)  
   first obs. used      2001-03-16  
   last obs. used      2019-06-22  
   planetary ephem.      DE431  
   SB-pert. ephem.      SB431-N16  
   condition code      0  
   norm. resid. RMS      .55077  
   source      ORB  
   producer      Otto Matic  
   solution date      2019-Sep-24 07:09:19  

Additional Information
 Earth MOID = 1.60118 au 
 Jupiter MOID = 2.24019 au 
 T_jup = 3.384 
[ show covariance matrix ]

Ephemeris | Orbit Diagram | Orbital Elements | Mission Design | Physical Parameters | Discovery Circumstances | Close-Approach Data ]

Physical Parameter Table
Parameter Symbol Value Units Sigma Reference Notes
absolute magnitude H 17.5   n/a MPO437609  

392901 (2012 VP51)          Discovered 2007-Sep-19 by Spacewatch at Kitt Peak
Reference: Last Updated: 2014-04-17

[ show close-approach data ]
Ephemeris | Orbit Diagram | Orbital Elements | Mission Design | Physical Parameters | Discovery Circumstances | Close-Approach Data ]
ABOUT SSD CREDITS/AWARDS PRIVACY/COPYRIGHT GLOSSARY LINKS
FirstGov 2020-Jun-03 04:48 UT
(server date/time)  
NASA Home Page
Site Manager:   Ryan S. Park
Webmaster  Alan B. Chamberlin